{"data":{"norad_id":67322,"epoch":"2026-09-19T10:02:04.133760Z","epoch_age_seconds":168813,"freshness":"FRESH","line1":"1 67322U 26002T   26262.41810340  .00012703  00000+0  46997-3 0  9999","line2":"2 67322  43.0023 311.4988 0001103 260.0592 100.0135 15.27605020 40706","mean_motion":15.2760502,"eccentricity":0.0001103,"inclination_deg":43.0023,"raan_deg":311.4988,"arg_perigee_deg":260.0592,"mean_anomaly_deg":100.0135,"bstar":0.00046997,"rev_number":4070,"period_min":94.26520475823,"perigee_km":482.21739761836,"apogee_km":483.73095874426,"semimajor_km":6861.1111781813,"source":"CELESTRAK","updated_at":"2026-09-20T09:00:43.506911Z"}}